| time (UTC) | temp F | wind direction | speed MPH | gust MPH | rain 1hr in | rain 24hr in | rain mn in | humidity % | barometer mb |
| 20260904141227 | 82 | 225 | 0.0 | 0.0 | 0.00 | 0.00 | 0.00 | 87 | 1015.2 |
| 20260904140229 | 82 | 225 | 0.0 | 0.0 | 0.00 | 0.00 | 0.00 | 89 | 1015.2 |
| 20260904135228 | 81 | 225 | 0.0 | 0.0 | 0.00 | 0.00 | 0.00 | 90 | 1015.1 |
| 20260904134230 | 81 | 225 | 0.0 | 0.0 | 0.00 | 0.00 | 0.00 | 91 | 1014.9 |
| 20260904133328 | 81 | 225 | 0.0 | 0.0 | 0.00 | 0.00 | 0.00 | 91 | 1015.0 |
| 20260904132328 | 81 | 225 | 0.0 | 0.0 | 0.00 | 0.00 | 0.00 | 91 | 1014.8 |
| 20260904131327 | 81 | 225 | 0.0 | 0.0 | 0.00 | 0.00 | 0.00 | 92 | 1014.9 |
| 20260904125327 | 80 | 225 | 0.0 | 0.0 | 0.00 | 0.00 | 0.00 | 94 | 1014.8 |
| 20260904124329 | 79 | 225 | 0.0 | 0.0 | 0.00 | 0.00 | 0.00 | 94 | 1014.8 |
| 20260904123331 | 79 | 225 | 0.0 | 0.0 | 0.00 | 0.00 | 0.00 | 94 | 1014.4 |
| 20260904122328 | 79 | 225 | 0.0 | 0.0 | 0.00 | 0.00 | 0.00 | 93 | 1014.3 |
| 20260904114428 | 79 | 225 | 0.0 | 0.0 | 0.00 | 0.00 | 0.00 | 93 | 1014.0 |
| 20260904113428 | 79 | 225 | 0.0 | 0.0 | 0.00 | 0.00 | 0.00 | 93 | 1014.0 |
| 20260904112429 | 79 | 225 | 0.0 | 0.0 | 0.00 | 0.00 | 0.00 | 92 | 1013.9 |
| 20260904111431 | 79 | 225 | 0.0 | 0.0 | 0.00 | 0.00 | 0.00 | 92 | 1014.1 |
| 20260904110429 | 80 | 225 | 0.0 | 0.0 | 0.00 | 0.00 | 0.00 | 93 | 1014.0 |
| 20260904105429 | 80 | 225 | 0.0 | 0.0 | 0.00 | 0.00 | 0.00 | 92 | 1014.1 |
| 20260904104428 | 80 | 225 | 0.0 | 0.0 | 0.00 | 0.00 | 0.00 | 91 | 1014.2 |
| 20260904103428 | 80 | 225 | 0.0 | 0.0 | 0.00 | 0.00 | 0.00 | 91 | 1013.9 |
| 20260904102429 | 80 | 225 | 0.0 | 0.0 | 0.00 | 0.00 | 0.00 | 91 | 1013.7 |
| 20260904101527 | 80 | 225 | 0.0 | 0.0 | 0.00 | 0.00 | 0.00 | 91 | 1013.7 |
| 20260904100530 | 80 | 225 | 0.0 | 0.0 | 0.00 | 0.00 | 0.00 | 91 | 1013.7 |
| 20260904095530 | 80 | 225 | 0.0 | 0.0 | 0.00 | 0.00 | 0.00 | 91 | 1013.5 |
| 20260904094528 | 80 | 225 | 0.0 | 0.0 | 0.00 | 0.00 | 0.00 | 90 | 1013.6 |
| 20260904093529 | 80 | 225 | 0.0 | 0.0 | 0.00 | 0.00 | 0.00 | 90 | 1013.4 |
| 20260904092529 | 80 | 225 | 0.0 | 0.0 | 0.00 | 0.00 | 0.00 | 90 | 1013.5 |
| 20260904085629 | 81 | 225 | 0.0 | 0.0 | 0.00 | 0.00 | 0.00 | 88 | 1013.4 |
| 20260904084629 | 81 | 225 | 0.0 | 0.0 | 0.00 | 0.00 | 0.00 | 87 | 1013.3 |
| 20260904084528 | 81 | 225 | 0.0 | 0.0 | 0.00 | 0.00 | 0.00 | 87 | 1013.3 |
| 20260904083527 | 81 | 225 | 0.0 | 0.0 | 0.00 | 0.00 | 0.00 | 86 | 1013.4 |
| 20260904082530 | 81 | 225 | 0.0 | 0.0 | 0.00 | 0.00 | 0.00 | 87 | 1013.4 |
| 20260904081530 | 82 | 225 | 0.0 | 0.0 | 0.00 | 0.00 | 0.00 | 87 | 1013.4 |
| 20260904080528 | 82 | 225 | 0.0 | 0.0 | 0.00 | 0.00 | 0.00 | 86 | 1013.4 |
| 20260904080429 | 82 | 225 | 0.0 | 0.0 | 0.00 | 0.00 | 0.00 | 85 | 1013.4 |
| 20260904075431 | 82 | 225 | 0.0 | 0.0 | 0.00 | 0.00 | 0.00 | 85 | 1013.4 |
| 20260904074428 | 82 | 225 | 0.0 | 0.0 | 0.00 | 0.00 | 0.00 | 86 | 1013.6 |
| 20260904073429 | 82 | 225 | 0.0 | 0.0 | 0.00 | 0.00 | 0.00 | 86 | 1013.5 |
| 20260904072428 | 82 | 202 | 0.0 | 0.0 | 0.00 | 0.00 | 0.00 | 85 | 1013.5 |
| 20260904071427 | 82 | 202 | 0.0 | 0.0 | 0.00 | 0.00 | 0.00 | 85 | 1013.5 |
| 20260904070527 | 82 | 202 | 0.0 | 0.0 | 0.00 | 0.00 | 0.00 | 85 | 1013.7 |
| 20260904065529 | 82 | 202 | 0.0 | 0.0 | 0.00 | 0.00 | 0.00 | 85 | 1013.7 |
| 20260904064529 | 82 | 225 | 0.0 | 1.0 | 0.00 | 0.00 | 0.00 | 85 | 1013.6 |
| 20260904062529 | 83 | 225 | 1.0 | 1.0 | 0.00 | 0.00 | 0.00 | 85 | 1013.7 |
| 20260904061530 | 83 | 225 | 0.0 | 0.0 | 0.00 | 0.00 | 0.00 | 85 | 1013.7 |
| 20260904060531 | 83 | 225 | 0.0 | 1.0 | 0.00 | 0.00 | 0.00 | 85 | 1013.7 |
| 20260904055527 | 83 | 225 | 1.0 | 2.0 | 0.00 | 0.00 | 0.00 | 85 | 1013.6 |
| 20260904054528 | 82 | 225 | 0.0 | 2.0 | 0.00 | 0.00 | 0.00 | 86 | 1013.7 |
| 20260904053529 | 83 | 225 | 0.0 | 0.0 | 0.00 | 0.00 | 0.00 | 87 | 1013.6 |
| 20260904052627 | 83 | 225 | 0.0 | 0.0 | 0.00 | 0.00 | 0.00 | 87 | 1013.7 |
| 20260904051629 | 83 | 225 | 0.0 | 0.0 | 0.00 | 0.00 | 0.00 | 87 | 1013.7 |
| 20260904051527 | 83 | 225 | 0.0 | 0.0 | 0.00 | 0.00 | 0.00 | 87 | 1013.8 |
| 20260904050428 | 83 | 225 | 0.0 | 1.0 | 0.00 | 0.00 | 0.00 | 87 | 1013.7 |
| 20260904050344 | 83 | 225 | 0.0 | 1.0 | 0.00 | 0.00 | 0.00 | 87 | 1013.8 |
| 20260904045438 | 83 | 225 | 0.0 | 0.0 | 0.00 | 0.00 | 0.00 | 86 | 1013.9 |
| 20260904044436 | 83 | 202 | 0.0 | 0.0 | 0.00 | 0.00 | 0.00 | 85 | 1013.8 |
| 20260904043438 | 83 | 202 | 0.0 | 1.0 | 0.00 | 0.00 | 0.00 | 86 | 1014.0 |
| 20260904042535 | 83 | 202 | 0.0 | 0.0 | 0.00 | 0.00 | 0.00 | 85 | 1013.9 |
| 20260904041537 | 82 | 202 | 0.0 | 0.0 | 0.00 | 0.00 | 0.00 | 85 | 1013.9 |
| 20260904040537 | 82 | 225 | 0.0 | 1.0 | 0.00 | 0.00 | 0.00 | 85 | 1014.1 |
| 20260904035538 | 82 | 225 | 0.0 | 0.0 | 0.00 | 0.00 | 0.00 | 84 | 1013.9 |
| 20260904032536 | 83 | 225 | 0.0 | 0.0 | 0.00 | 0.00 | 0.00 | 83 | 1014.1 |
| 20260904031635 | 83 | 225 | 0.0 | 1.0 | 0.00 | 0.00 | 0.00 | 83 | 1013.9 |
| 20260904030636 | 83 | 225 | 0.0 | 0.0 | 0.00 | 0.00 | 0.00 | 83 | 1014.0 |
| 20260904025635 | 83 | 225 | 0.0 | 1.0 | 0.00 | 0.00 | 0.00 | 84 | 1013.9 |
| 20260904024636 | 83 | 225 | 0.0 | 0.0 | 0.00 | 0.00 | 0.00 | 84 | 1014.0 |
| 20260904022636 | 83 | 225 | 0.0 | 0.0 | 0.00 | 0.00 | 0.00 | 83 | 1013.8 |
| 20260904021637 | 83 | 225 | 1.0 | 1.0 | 0.00 | 0.00 | 0.00 | 83 | 1013.5 |
| 20260904020736 | 83 | 180 | 0.0 | 0.0 | 0.00 | 0.00 | 0.00 | 84 | 1013.6 |
| 20260904015736 | 83 | 225 | 0.0 | 0.0 | 0.00 | 0.00 | 0.00 | 83 | 1013.4 |
| 20260904014737 | 84 | 229 | 0.0 | 2.0 | 0.00 | 0.00 | 0.00 | 84 | 1013.3 |
| 20260904013835 | 84 | 78 | 0.0 | 1.0 | 0.00 | 0.00 | 0.00 | 83 | 1013.1 |
| 20260904012838 | 84 | 127 | 0.0 | 0.0 | 0.00 | 0.00 | 0.00 | 82 | 1013.1 |
| 20260904004938 | 84 | 225 | 0.0 | 0.0 | 0.00 | 0.00 | 0.00 | 80 | 1013.1 |
| 20260904002937 | 85 | 225 | 0.0 | 1.0 | 0.00 | 0.00 | 0.00 | 79 | 1013.1 |
| 20260904002035 | 85 | 225 | 0.0 | 1.0 | 0.00 | 0.00 | 0.00 | 78 | 1013.1 |
| 20260904001038 | 85 | 241 | 0.0 | 2.0 | 0.00 | 0.00 | 0.00 | 79 | 1013.2 |
| 20260904000038 | 85 | 225 | 0.0 | 2.0 | 0.00 | 0.00 | 0.00 | 78 | 1013.2 |
| 20260903235039 | 85 | 241 | 0.0 | 1.0 | 0.00 | 0.00 | 0.00 | 77 | 1013.1 |
| 20260903234135 | 85 | 156 | 0.0 | 2.0 | 0.00 | 0.00 | 0.00 | 77 | 1013.2 |
| 20260903233138 | 86 | 117 | 0.0 | 0.0 | 0.00 | 0.00 | 0.00 | 76 | 1013.1 |
| 20260903232137 | 86 | 206 | 0.0 | 2.0 | 0.00 | 0.00 | 0.00 | 78 | 1013.1 |
| 20260903231138 | 86 | 222 | 0.0 | 0.0 | 0.00 | 0.00 | 0.00 | 77 | 1012.8 |
| 20260903230137 | 86 | 90 | 0.0 | 0.0 | 0.00 | 0.00 | 0.00 | 78 | 1013.0 |
| 20260903225137 | 86 | 45 | 0.0 | 0.0 | 0.00 | 0.00 | 0.00 | 78 | 1013.1 |
| 20260903223236 | 86 | 250 | 0.0 | 1.0 | 0.00 | 0.00 | 0.00 | 76 | 1013.4 |
| 20260903222236 | 86 | 342 | 0.0 | 2.0 | 0.00 | 0.00 | 0.00 | 77 | 1013.3 |
| 20260903215438 | 86 | 178 | 0.0 | 0.0 | 0.00 | 0.00 | 0.00 | 78 | 1013.5 |
| 20260903214437 | 86 | 130 | 0.0 | 0.0 | 0.00 | 0.00 | 0.00 | 78 | 1013.8 |
| 20260903213437 | 86 | 157 | 0.0 | 0.0 | 0.00 | 0.00 | 0.00 | 77 | 1014.1 |
| 20260903212536 | 86 | 225 | 0.0 | 0.0 | 0.00 | 0.00 | 0.00 | 78 | 1014.3 |
| 20260903211538 | 86 | 166 | 0.0 | 0.0 | 0.00 | 0.00 | 0.00 | 78 | 1014.2 |
| 20260903210535 | 85 | 225 | 0.0 | 0.0 | 0.00 | 0.00 | 0.00 | 77 | 1014.4 |
| 20260903205537 | 85 | 22 | 2.0 | 4.0 | 0.00 | 0.00 | 0.00 | 78 | 1014.2 |
| 20260903204536 | 85 | 147 | 0.0 | 0.0 | 0.00 | 0.00 | 0.00 | 81 | 1014.3 |
| 20260903203535 | 84 | 67 | 0.0 | 0.0 | 0.00 | 0.00 | 0.00 | 83 | 1014.3 |
| 20260903202537 | 83 | 107 | 0.0 | 0.0 | 0.00 | 0.00 | 0.00 | 85 | 1013.8 |
| 20260903201635 | 83 | 131 | 0.0 | 0.0 | 0.00 | 0.00 | 0.00 | 82 | 1013.8 |
| 20260903200637 | 85 | 180 | 0.0 | 0.0 | 0.00 | 0.00 | 0.00 | 74 | 1014.3 |
| 20260903195734 | 86 | 213 | 0.0 | 2.0 | 0.00 | 0.00 | 0.00 | 70 | 1013.9 |
| 20260903194735 | 89 | 67 | 0.0 | 3.0 | 0.00 | 0.00 | 0.00 | 68 | 1014.4 |
| 20260903193736 | 92 | 198 | 0.0 | 3.0 | 0.00 | 0.00 | 0.00 | 66 | 1014.4 |
| 20260903193637 | 92 | 228 | 0.0 | 1.0 | 0.00 | 0.00 | 0.00 | 65 | 1014.5 |
| 20260903192636 | 94 | 118 | 0.0 | 2.0 | 0.00 | 0.00 | 0.00 | 62 | 1014.4 |
| 20260903191735 | 93 | 82 | 0.0 | 2.0 | 0.00 | 0.00 | 0.00 | 64 | 1013.8 |
| 20260903190736 | 93 | 342 | 1.0 | 3.0 | 0.00 | 0.00 | 0.00 | 65 | 1014.1 |
| 20260903184836 | 93 | 333 | 1.0 | 5.0 | 0.00 | 0.00 | 0.00 | 65 | 1014.3 |
| 20260903181938 | 93 | 176 | 0.0 | 1.0 | 0.00 | 0.00 | 0.00 | 63 | 1014.4 |
| 20260903174936 | 92 | 93 | 0.0 | 0.0 | 0.00 | 0.00 | 0.00 | 65 | 1015.2 |
| 20260903173934 | 92 | 227 | 1.0 | 2.0 | 0.00 | 0.00 | 0.00 | 65 | 1015.1 |
| 20260903172938 | 92 | 225 | 0.0 | 0.0 | 0.00 | 0.00 | 0.00 | 63 | 1015.1 |
| 20260903172837 | 92 | 225 | 0.0 | 0.0 | 0.00 | 0.00 | 0.00 | 63 | 1015.2 |
| 20260903171836 | 91 | 140 | 0.0 | 0.0 | 0.00 | 0.00 | 0.00 | 66 | 1015.3 |
| 20260903170935 | 90 | 144 | 0.0 | 0.0 | 0.00 | 0.00 | 0.00 | 68 | 1015.4 |
| 20260903165937 | 90 | 202 | 0.0 | 1.0 | 0.00 | 0.00 | 0.00 | 71 | 1015.5 |
| 20260903165035 | 89 | 202 | 0.0 | 0.0 | 0.00 | 0.00 | 0.00 | 75 | 1015.7 |
| 20260903164039 | 88 | 202 | 0.0 | 0.0 | 0.00 | 0.00 | 0.00 | 78 | 1015.6 |
| 20260903163038 | 86 | 202 | 0.0 | 1.0 | 0.00 | 0.00 | 0.00 | 80 | 1015.5 |
| 20260903162036 | 85 | 180 | 0.0 | 0.0 | 0.00 | 0.00 | 0.00 | 82 | 1015.4 |
| 20260903161038 | 84 | 157 | 0.0 | 0.0 | 0.00 | 0.00 | 0.00 | 82 | 1015.3 |
| 20260903160136 | 83 | 135 | 0.0 | 0.0 | 0.00 | 0.00 | 0.00 | 83 | 1015.3 |
| 20260903160045 | 83 | 135 | 0.0 | 0.0 | 0.00 | 0.00 | 0.00 | 84 | 1015.4 |
| 20260903155137 | 82 | 135 | 0.0 | 0.0 | 0.00 | 0.00 | 0.00 | 84 | 1015.4 |
| 20260903154137 | 82 | 135 | 0.0 | 0.0 | 0.00 | 0.00 | 0.00 | 83 | 1015.4 |
| 20260903153139 | 81 | 135 | 0.0 | 0.0 | 0.00 | 0.00 | 0.00 | 82 | 1015.4 |
| 20260903152135 | 81 | 135 | 0.0 | 0.0 | 0.00 | 0.00 | 0.00 | 83 | 1015.3 |
| 20260903151137 | 80 | 135 | 0.0 | 0.0 | 0.00 | 0.00 | 0.00 | 83 | 1015.4 |
| 20260903150234 | 80 | 135 | 0.0 | 0.0 | 0.00 | 0.00 | 0.00 | 83 | 1015.3 |
| 20260903145237 | 80 | 135 | 0.0 | 0.0 | 0.00 | 0.00 | 0.00 | 83 | 1015.4 |
| 20260903144236 | 80 | 135 | 0.0 | 0.0 | 0.00 | 0.00 | 0.00 | 84 | 1015.4 |
| 20260903143239 | 80 | 135 | 0.0 | 0.0 | 0.00 | 0.00 | 0.00 | 82 | 1015.3 |